User: anonymous   Login
Location: Unspecified
(0.0000°N, 0.0000°E)
Time: 17:29:08
(UTC+00:00)
Language:

TACSAT 4 - Orbit

View from above orbital plane
View from above orbital plane
View from above satellite
View from above satellite

Ground track
Ground track

The orbit is defined by the following mean orbital elements,

1 37818U          26160.27191862 +.00000000 +00000-0 +79215-3 0 00008
2 37818  62.8229 125.2216 4622556 283.4970  30.5389  6.15518657    02
Epoch (UTC): 09 June 2026 06:31:33
Eccentricity: 0.4622556
inclination: 62.8229°
perigee height: 385 km
apogee height: 12013 km
right ascension of ascending node: 125.2216°
argument of perigee: 283.4970°
revolutions per day: 6.15518657
mean anomaly at epoch: 30.5389°

The dashed part of the orbit path shows where the satellite is in the earth's shadow,  

DLR